Weather History for TJSJ - March, 2013

Change the Weather History Date:

Saturday, March 23, 2013

  Actual Average Record
Temperature  
Mean Temperature 82 °F 79 °F  
Max Temperature 87 °F 85 °F 92 °F (2007)
Min Temperature 76 °F 73 °F 61 °F (1962)
Degree Days  
Heating Degree Days 0 0  
Month to date heating degree days 0 0  
Since 1 July heating degree days 0 0  
Cooling Degree Days 17 14  
Month to date cooling degree days 332 316  
Year to date cooling degree days 1128 1067  
Growing Degree Days 31 (Base 50)    
Moisture  
Dew Point 73 °F    
Average Humidity 78    
Maximum Humidity 91    
Minimum Humidity 57    
Precipitation  
Precipitation 0.06 in 0.06 in 1.52 in (1958)
Month to date precipitation 1.26 1.38  
Year to date precipitation 5.36 7.53  
Sea Level Pressure  
Sea Level Pressure 30.02 in    
Wind  
Wind Speed 8 mph (ENE)    
Max Wind Speed 21 mph    
Max Gust Speed 28 mph    
Visibility 10 miles    
Events Rain    
T = Trace of Precipitation, MM = Missing Value Source: NWS Daily Summary

Daily Weather History Graph

Daily Weather History Graph

Search for Another Location

Airport or City:

Trip Planner

Search our weather history database for the weather conditions in past years. The results will help you decide how hot, cold, wet, or windy it might be!

Date:

Astronomy

Mar. 23, 2013 Rise Set
Actual Time 6:25 AM AST 6:35 PM AST
Civil Twilight 6:03 AM AST 6:57 PM AST
Nautical Twilight 5:38 AM AST 7:22 PM AST
Astronomical Twilight 5:12 AM AST 7:48 PM AST
Moon 3:24 PM AST (3/23) 3:30 AM AST (3/23)
Length of Visible Light 12h 53m
Length of Day
12h 10m
Waxing Gibbous, 85% of the Moon is Illuminated
Mar 23
Waxing Gibbous
Mar 27
Full
Apr 3
Last Quarter
Apr 10
New
Apr 18
First Quarter

Hourly Weather History & Observations

Time (AST) Temp. Heat Index Dew Point Humidity Pressure Visibility Wind Dir Wind Speed Gust Speed Precip Events Conditions
12:56 AM 78.1 °F - 72.0 °F 81% 30.02 in 10.0 mi West 4.6 mph - N/A   Mostly Cloudy
1:56 AM 75.9 °F - 72.0 °F 87% 30.00 in 10.0 mi East 3.5 mph - 0.06 in Rain Light Rain
2:56 AM 75.9 °F - 72.0 °F 87% 29.99 in 10.0 mi Calm Calm - 0.00 in   Mostly Cloudy
3:56 AM 77.0 °F - 73.0 °F 88% 29.99 in 10.0 mi Calm Calm - N/A   Overcast
4:56 AM 75.9 °F - 73.0 °F 91% 30.00 in 10.0 mi Calm Calm - N/A   Scattered Clouds
5:56 AM 77.0 °F - 73.0 °F 88% 30.02 in 10.0 mi Calm Calm - N/A   Mostly Cloudy
6:56 AM 77.0 °F - 73.0 °F 88% 30.04 in 9.0 mi Calm Calm - N/A   Mostly Cloudy
7:56 AM 78.1 °F - 73.9 °F 87% 30.06 in 10.0 mi ENE 4.6 mph - N/A   Mostly Cloudy
8:56 AM 81.0 °F 86.2 °F 73.9 °F 79% 30.07 in 10.0 mi ESE 6.9 mph - N/A   Mostly Cloudy
9:56 AM 84.0 °F 90.2 °F 73.0 °F 69% 30.08 in 10.0 mi NE 9.2 mph - N/A   Mostly Cloudy
10:56 AM 84.0 °F 91.2 °F 73.9 °F 72% 30.07 in 10.0 mi NE 11.5 mph 20.7 mph N/A   Mostly Cloudy
11:56 AM 86.0 °F 93.0 °F 73.0 °F 65% 30.05 in 10.0 mi ENE 15.0 mph - N/A   Mostly Cloudy
12:56 PM 86.0 °F 93.0 °F 73.0 °F 65% 30.03 in 10.0 mi NE 13.8 mph 21.9 mph N/A   Mostly Cloudy
1:56 PM 86.0 °F 93.0 °F 73.0 °F 65% 30.00 in 10.0 mi ENE 13.8 mph - N/A   Mostly Cloudy
2:56 PM 86.0 °F 92.2 °F 72.0 °F 63% 29.98 in 10.0 mi NE 15.0 mph 21.9 mph N/A   Mostly Cloudy
3:56 PM 84.9 °F 90.7 °F 72.0 °F 65% 29.96 in 10.0 mi ENE 18.4 mph - N/A   Mostly Cloudy
4:56 PM 84.0 °F 89.6 °F 72.0 °F 67% 29.97 in 10.0 mi ENE 17.3 mph - N/A   Mostly Cloudy
5:56 PM 81.0 °F 85.2 °F 72.0 °F 74% 29.98 in 10.0 mi ENE 17.3 mph - N/A   Scattered Clouds
6:56 PM 79.0 °F - 73.0 °F 82% 29.99 in 10.0 mi East 11.5 mph - N/A   Partly Cloudy
7:56 PM 78.1 °F - 73.0 °F 84% 30.00 in 10.0 mi East 9.2 mph - N/A   Partly Cloudy
8:56 PM 78.1 °F - 73.0 °F 84% 30.02 in 10.0 mi East 6.9 mph - N/A   Partly Cloudy
9:56 PM 78.1 °F - 72.0 °F 81% 30.03 in 10.0 mi East 5.8 mph - N/A   Scattered Clouds
10:56 PM 78.1 °F - 72.0 °F 81% 30.01 in 10.0 mi ESE 4.6 mph - N/A   Scattered Clouds
11:56 PM 78.1 °F - 72.0 °F 81% 30.01 in 10.0 mi Calm Calm - N/A   Scattered Clouds